User: anonymous   Login
Location: Port Townsend
(48.1170°N, 122.7590°W)
Time: 13:25:58
(UTC-07:00)
Language:

Hubble Space Telescope - Orbit

View from above orbital plane
View from above orbital plane
View from above satellite
View from above satellite

Ground track
Ground track

The orbit data is extracted from the following two-line orbital elements,

1 20580U 90037B   19143.90118949 +.00000354 +00000-0 +10560-4 0  9991
2 20580 028.4705 022.4754 0002672 203.6804 278.6093 15.09226963396902
Epoch (UTC): 23 May 2019 21:37:42
Eccentricity: 0.0002672
inclination: 28.4705°
perigee height: 537 km
apogee height: 540 km
right ascension of ascending node: 22.4754°
argument of perigee: 203.6804°
revolutions per day: 15.09226963
mean anomaly at epoch: 278.6093°
orbit number at epoch: 39690

The dashed part of the orbit path shows where the satellite is in the earth's shadow,  

DLR